Location: Unspecified
(0.0000°N, 0.0000°E)
Time: 05:27:03
(UTC+00:00)

RS-8 - Pass Details

Date: 08 October 2022
Orbit: 1579 x 1660 km, 83.0° (Epoch: 09 December)

Event Time Altitude Azimuth Distance (km) Brightness Sun altitude
Rises 18:44:09 0° 148° (SSE) 4,768 10.3 -14.1°
Reaches altitude 10° 18:48:38 10° 129° (SE) 3,781 9.6 -15.2°
Enters shadow 18:51:14 15° 112° (ESE) 3,413 9.3 -15.8°
